Location: Blue Sky Observatory
(43.1153°N, 70.9036°W)
Time: 14:08:30
(UTC-05:00)

Daily predictions for brighter satellites

Satellite Brightness Start Highest point End
(mag) Time Altitude Azimuth Time Altitude Azimuth Time Altitude Azimuth
USA 215 4.1 17:46:28 10° NE 17:52:37 45° NNW 17:58:45 10° W
Cosmos 1812 3.4 17:50:49 10° NNW 17:54:39 61° W 17:58:27 10° S
COSMO-SKYMED 1 2.6 17:50:20 10° NNE 17:54:42 82° ESE 17:59:03 10° S
Cosmos 2360 Rocket 2.2 17:50:44 10° NNW 17:56:24 68° ENE 18:02:02 10° SSE
Cosmos 2219 Rocket 3.5 17:52:14 10° N 17:56:25 21° NE 18:00:35 10° E
Resurs 01 Rocket 2.8 17:56:43 10° ESE 18:00:06 22° ENE 18:03:30 10° NNE
Cosmos 2219 4.0 17:58:16 10° SSE 18:03:14 31° ESE 18:08:13 10° NE
BREEZE-M DEB (TANK) 4.2 18:02:25 10° SSW 18:06:12 22° SSE 18:08:19 11° E
BREEZE-M DEB (TANK) 3.4 18:04:11 10° NW 18:06:51 46° NNE 18:13:04 10° E
Cosmos 1954 Rocket 4.0 18:02:05 10° SSW 18:07:16 79° ESE 18:12:31 10° NNE
Cosmos 1536 3.6 18:04:33 10° SSE 18:08:00 29° E 18:11:28 10° NNE
Cosmos 2181 Rocket 4.1 18:01:53 10° N 18:08:06 62° E 18:14:22 10° SSE
Okean 1 3.9 18:06:28 10° NNW 18:10:31 64° W 18:14:32 10° S
HJ-1C 4.2 18:12:07 10° SE 18:15:08 31° ENE 18:18:10 10° N
Cosmos 1709 Rocket 4.0 18:12:59 10° S 18:19:11 86° E 18:25:22 10° N
Cosmos 2074 Rocket 4.4 18:14:37 10° SSE 18:20:18 38° E 18:26:03 10° NNE
Okean 1 Rocket 3.1 18:19:58 10° S 18:24:21 58° E 18:28:46 10° NNE
Cosmos 2184 Rocket 4.4 18:19:41 10° SSE 18:25:30 40° E 18:31:16 10° NNE
Cosmos 1602 3.8 18:23:36 10° S 18:27:29 86° W 18:31:26 10° N
Meteor 1-11 Rocket 3.8 18:23:19 10° S 18:29:05 76° E 18:35:03 10° NNE
Cosmos 1340 3.6 18:28:08 10° NNW 18:31:51 52° W 18:35:31 10° S
Cosmos 1025 Rocket 3.3 18:30:15 10° N 18:34:29 45° ENE 18:38:42 10° SSE
ALOS 2.2 18:30:43 10° SSE 18:35:20 66° ENE 18:39:59 10° N
USA 186 4.0 18:38:04 11° NNE 18:38:04 11° NNE 18:38:11 10° NNE
Cosmos 2333 Rocket 2.9 18:33:10 10° N 18:38:22 34° NE 18:41:50 18° ESE
SL-08 ROCKET BODY 4.5 18:32:23 10° S 18:38:25 59° E 18:44:29 10° NNE
FENGYUN 3A 3.6 18:44:22 10° SSE 18:49:47 86° ENE 18:55:14 10° NNW
Abrixas rocket 2.3 18:48:41 10° SW 18:52:00 61° SSE 18:52:57 40° E
Cosmos 1544 Rocket 4.3 18:49:04 10° SSE 18:52:49 29° E 18:56:34 10° NNE
FREGAT/IRIS 4.3 18:50:27 10° SSW 18:53:20 37° W 18:56:16 10° NNW
Cosmos 1741 Rocket 4.0 18:48:37 10° SSW 18:53:51 87° WNW 18:59:06 10° NNE
NOSS 0 Rocket 4.2 18:48:31 10° NNW 18:54:28 47° ENE 18:58:02 23° ESE
Cosmos 2285 Rocket 4.0 18:48:12 10° NNW 18:54:39 67° ENE 19:01:00 10° SSE
Cosmos 2154 Rocket 4.5 18:49:07 10° SSE 18:54:50 36° E 19:00:32 10° NNE
Genesis I 4.1 18:52:02 10° NW 18:55:51 49° WSW 18:59:38 10° SSE
GEOS 3 Rocket 3.8 18:51:19 12° NE 18:56:00 53° ESE 19:01:08 10° SSW
Okean 1-7 Rocket 3.7 18:52:21 10° N 18:56:54 77° W 19:01:21 10° S
GPS 2-04 Rocket1 4.1 18:57:07 10° SW 19:00:48 28° S 19:01:59 25° SE
FengYun 1-2 T 4.4 18:58:22 10° S 19:03:50 74° WSW 19:09:22 10° NNW
Meteor 1-5 Rocket 4.2 18:58:12 10° S 19:04:09 78° E 19:10:03 10° NNE
ATLAS CENTAUR R/B 3.1 19:12:25 10° SSW 19:14:33 22° S 19:14:33 22° S
Cosmos 405 Rocket 2.7 19:18:39 10° N 19:22:45 84° E 19:23:33 56° SSE
Cosmos 468 Rocket 3.9 19:17:58 10° NNW 19:23:14 76° ENE 19:25:21 37° SSE
USA 229 DEB 3.9 19:17:20 10° NW 19:24:28 76° WSW 19:29:53 19° SSE
USA 229 3.9 19:17:26 10° NW 19:24:34 77° WSW 19:29:56 20° SSE
Helios 1A 2.8 19:23:44 42° SSE 19:25:07 89° ENE 19:29:19 10° NNW
CZ-2D R/B 3.5 19:24:00 24° S 19:26:08 66° W 19:29:57 10° NNW
Okean 2 3.6 19:22:03 10° NNW 19:26:13 69° W 19:29:22 17° S
Cosmos 2237 Rocket 2.2 19:21:31 10° NNW 19:27:09 58° ENE 19:28:14 49° ESE
H-2A R/B 3.7 19:23:54 10° S 19:27:28 45° W 19:31:06 10° NNW
Spot 2 Rocket 4.2 19:22:34 10° S 19:27:30 54° W 19:32:29 10° NNW
COSMOS 2428 3.6 19:22:53 10° NW 19:28:21 48° WSW 19:33:47 10° S
Gbstr 26 Del rocket 3.6 19:25:21 10° W 19:28:54 39° NNW 19:29:29 36° N
Helios 1B rocket 2.3 19:24:43 10° NNE 19:28:54 80° ESE 19:33:03 10° S
Cosmos 2297 Rocket 3.9 19:25:04 10° S 19:26:20 17° SSE 19:26:20 17° SSE
Cosmos 1066 Rocket 4.4 19:25:01 10° N 19:30:18 47° ENE 19:30:18 47° ENE
Resurs 01 Rocket 3.1 19:32:17 10° SSW 19:36:22 37° W 19:40:28 10° NNW
Meteor 2-8 Rocket 4.5 19:30:59 10° N 19:36:54 51° ENE 19:36:57 51° E
NOSS 3-1 (A) 4.2 19:29:47 10° NNW 19:37:08 55° NE 19:39:19 44° E
Atlas Centaur 2 4.5 19:36:36 10° S 19:38:25 12° S 19:38:25 12° S
Cosmos 2219 Rocket 2.4 19:35:20 10° NNW 19:40:54 68° WSW 19:43:37 31° S
ATLAS 2AS CENTAUR R/B 4.1 19:35:32 10° NNW 19:42:13 27° NNE 19:43:50 25° NE
Cosmos 1814 Rocket 3.8 19:37:54 10° NNW 19:43:06 85° ENE 19:43:32 75° SE
ERS-1 Rocket 4.1 19:45:15 31° NNE 19:45:15 31° NNE 19:48:10 10° N
Envisat 2.9 19:44:07 70° NE 19:44:07 70° NE 19:48:58 10° N
USA 32 4.2 19:40:55 10° N 19:45:18 57° NE 19:45:18 57° NE
Cosmos 2219 4.4 19:41:48 10° SW 19:47:13 41° WNW 19:52:39 10° NNE
Cosmos 2227 Rocket 2.2 19:44:43 10° SSW 19:49:27 60° SSE 19:49:27 60° SSE
NOSS 3-1 (C) 3.9 19:48:07 10° NW 19:55:42 82° NE 19:57:53 54° SE
SL-16 R/B 3.0 19:56:41 10° NNW 20:00:38 39° NNE 20:00:38 39° NNE
Cosmos 2333 Rocket 3.4 20:17:23 10° NW 20:22:41 39° WSW 20:23:54 35° SW
Cosmos 2237 Rocket 4.3 21:06:33 10° NW 21:10:07 21° W 21:10:07 21° W
ATLAS 2AS CENTAUR R/B 4.0 21:26:29 10° NW 21:31:17 39° NNW 21:31:17 39° NNW
